ראשי / חיפושים אחרונים

חיפושים אחרונים

לוחית
סוג רכב
דגם
שנה
תאריך חיפוש
שעת חיפוש
9372233 יונדאי קוריאה הדרומית I25 2015 30/08/2026 01:00:40
61164102 סקודה צ'כיה OCTAVIA 2021 30/08/2026 01:00:38
91113301 מרצדס ספרד VIANO 3.0 CDI 2011 30/08/2026 01:00:38
3570455 איסוזו תאילנד PICK-UP 2017 30/08/2026 01:00:37
80713403 אאודי סלובקיה Q8 2024 30/08/2026 01:00:36
31911003 גולדן דרגון סי - 2023 30/08/2026 01:00:34
7354868 מזדה יפן MAZDA 2 2010 30/08/2026 01:00:34
61164102 סקודה צ'כיה OCTAVIA 2021 30/08/2026 01:00:33
4952226 בי ווי די סין BYD SEAL 5 2026 30/08/2026 01:00:32
9937872 חרש אשדוד - 2012 30/08/2026 01:00:32
73205002 ב מ וו גרמניה 330E 2021 30/08/2026 01:00:30
2154637 טויוטה יפן PRIUS 2016 30/08/2026 01:00:29
13108104 אקספנג סין G6 2024 30/08/2026 01:00:24
11547003 יונדאי קוריאה הדרומית KONA HYBRID 2022 30/08/2026 01:00:23
44320801 טויוטה טורקיה C-HR HYBRID 2018 30/08/2026 01:00:19
71452603 יונדאי קוריאה הדרומית IONIQ5 2024 30/08/2026 01:00:16
58896302 סקודה צ'כיה SUPERB FL 2021 30/08/2026 01:00:15
49007701 סקודה צ'כיה KODIAQ 2018 30/08/2026 01:00:07
8941433 וולבו בלגיה - 2016 30/08/2026 01:00:02
5862463 דימלרקריזלר-גר - 2008 30/08/2026 01:00:01
78989303 ימהה יפן - 2024 30/08/2026 00:59:59
1134532 יונדאי קוריאה הדרומית I35 2014 30/08/2026 00:59:51
26763101 אופל ספרד CORSA 2018 30/08/2026 00:59:49
80302403 קרייזלר מכסיקו - 2026 30/08/2026 00:59:46
60068001 מזדה יפן MAZDA 3 2019 30/08/2026 00:59:44
54315503 יונדאי קוריאה הדרומית ELANTRA HEV 2023 30/08/2026 00:59:44
44320801 טויוטה טורקיה C-HR HYBRID 2018 30/08/2026 00:59:43
1133260 טויוטה צרפת YARIS 2006 30/08/2026 00:59:42
14419201 קיה סלובקיה CEED 2018 30/08/2026 00:59:42
75429903 ליפמוטור סין T03 2024 30/08/2026 00:59:41
1267076 פורד קנדה EDGE 2013 30/08/2026 00:59:39
2627932 שברולט ארהב" - 2014 30/08/2026 00:59:35
1500850 טויוטה טורקיה COROLLA 2003 30/08/2026 00:59:34
68711702 וולבו בלגיה XC40 T2 2022 30/08/2026 00:59:33
8736062 מיצובישי תאילנד L 200 2007 30/08/2026 00:59:30
1900017 וולבו שבדיה S90-3.0 1997 30/08/2026 00:59:29
8719857 טויוטה יפן LAND CRUISER 2005 30/08/2026 00:59:25
3311375 שברולט קוריאה הדרומית SONIC LS 2011 30/08/2026 00:59:24
74705604 ב מ וו גרמניה - 2026 30/08/2026 00:59:21
58713703 פולקסווגן גרמניה GOLF 2023 30/08/2026 00:59:19
3541653 פולקסווגן מקסיקה JETTA 2014 30/08/2026 00:59:17
4237868 ניסאן מקסיקו TIIDA 2009 30/08/2026 00:59:15
9620260 טויוטה ארהב" - 2007 30/08/2026 00:59:14
30530201 מזדה יפן CX-5 2018 30/08/2026 00:59:13
55357004 מ.ג סין EHS 2026 30/08/2026 00:59:12
9007522 פיג'ו צרפת 5008 2021 30/08/2026 00:59:09
8779154 מזדה יפן MAZDA 3 2016 30/08/2026 00:59:07
21035903 בנלי איטליה - 2024 30/08/2026 00:59:06
5314658 מרוטי סוזוקי הודו ALTO 2014 30/08/2026 00:59:05
49007701 סקודה צ'כיה KODIAQ 2018 30/08/2026 00:59:05
8240865 מזדה יפן MAZDA 5 2009 30/08/2026 00:59:04
1404968 סוזוקי יפן GRAND VITARA 2009 30/08/2026 00:59:03
93369301 מרצדס בנץ ארהב - 2021 30/08/2026 00:59:01
29690601 ב מ וו גרמניה 220I 2017 30/08/2026 00:58:59
1047032 יונדאי טורקיה I10 2014 30/08/2026 00:58:57
39155601 אאודי ספרד Q3 2018 30/08/2026 00:58:56
6114916 ב מ וו גרמניה 730I 2009 30/08/2026 00:58:55
47705502 סובארו יפן FORESTER 2021 30/08/2026 00:58:54
51707502 שברולט קוריאה הדרומית TRAIL BLAZER 2022 30/08/2026 00:58:53
3582611 יונדאי צ'כיה I30 2013 30/08/2026 00:58:50
4725738 סקודה צ'כיה RAPID 2016 30/08/2026 00:58:50
2577084 רנו ספרד KADJAR 2017 30/08/2026 00:58:49
8767563 פיאט איטליה GRANDE PUNTO1.2 2008 30/08/2026 00:58:46
1855679 קואנג יאנג טיו - 2012 30/08/2026 00:58:45
4272506 רנו צרפת - 1994 30/08/2026 00:58:44
2738709 סקודה צ'כיה סקודה צ'כיה 5 דלתות 1998 30/08/2026 00:58:43
7621372 ניסאן מקסיקו TIIDA 2010 30/08/2026 00:58:42
1111037 טויוטה תאילנד HILUX 2016 30/08/2026 00:58:42
44320801 טויוטה טורקיה C-HR HYBRID 2018 30/08/2026 00:58:41
7988875 ניסאן יפן INFINITI 2011 30/08/2026 00:58:40
91542901 ב מ וו גרמניה - 2018 30/08/2026 00:58:40
67616102 מ א ן גרמניה - 2022 30/08/2026 00:58:40
9922500 טויוטה יפן - 2004 30/08/2026 00:58:39
8206637 דאצ'יה רומניה DUSTER 2016 30/08/2026 00:58:39
86018502 קיה קוריאה הדרומית PICANTO 2022 30/08/2026 00:58:37
1238811 יונדאי הודו I10 2013 30/08/2026 00:58:37
31759903 הונדה איטליה - 2023 30/08/2026 00:58:34
1410052 טויוטה יפן PRIUS HYBRID 2013 30/08/2026 00:58:34
38310104 צ'רי סין TIGGO7 PRO PHEV 2025 30/08/2026 00:58:33
69635902 סיאט ספרד CUPRA LEON E180 2022 30/08/2026 00:58:29
57414802 סיטרואן צרפת C5 AIRCROSS 2021 30/08/2026 00:58:29
9237679 ב מ וו גרמניה - 2015 30/08/2026 00:58:27
3367567 סקודה צ'כיה ROOMSTER 2008 30/08/2026 00:58:25
4120079 ניסאן יפן INFINITI 2013 30/08/2026 00:58:24
71429501 יגואר בריטניה F-PACE 2020 30/08/2026 00:58:24
85323203 מזדה יפן MAZDA3 2024 30/08/2026 00:58:22
9249055 ימהה יפן - 1986 30/08/2026 00:58:19
20763902 ימהה יפן - 2020 30/08/2026 00:58:18
2028762 פולקסווגן ספרד POLO 2007 30/08/2026 00:58:16
36387102 מיצובישי יפן ECLIPSE CROSS 2021 30/08/2026 00:58:14
49311601 סיאט ספרד IBIZA 2018 30/08/2026 00:58:14
1096732 יונדאי צ'כיה I30 2014 30/08/2026 00:58:14
8988109 מזדה יפן - 1994 30/08/2026 00:58:09
6599012 ניסאן הודו MICRA 2013 30/08/2026 00:58:09
4421530 דאף אנגליה - 2015 30/08/2026 00:58:07
85820802 קיה קוריאה הדרומית PICANTO 2022 30/08/2026 00:58:06
9517754 פורד גרמניה FOCUS 2016 30/08/2026 00:58:04
5570431 הונדה בריטניה CR-V 2014 30/08/2026 00:58:03
6956867 סובארו יפן IMPREZA B3 2008 30/08/2026 00:58:01
1282839 פיאט טורקיה DOBLO 2016 30/08/2026 00:58:01
6745570 וולבו שוודיה - 2010 30/08/2026 00:58:00
3089669 פורד ספרד FOCUS 2009 30/08/2026 00:57:59
68711702 וולבו בלגיה XC40 T2 2022 30/08/2026 00:57:57
17696201 יונדאי קוריאה הדרומית KONA 2018 30/08/2026 00:57:56
6262812 יונדאי קוריאה הדרומית I35 2012 30/08/2026 00:57:54
73038701 מרצדס גרמניה CLS350 2019 30/08/2026 00:57:54
7633038 קיה קוריאה הדרומית CARNIVAL 2016 30/08/2026 00:57:53
6563270 הונדה טורקיה CIVIC 2010 30/08/2026 00:57:52
66729302 רנו טורקיה MEGANE 2021 30/08/2026 00:57:51
3675432 סאן יאנג טיואן - 2014 30/08/2026 00:57:49
43973802 טויוטה בריטניה COROLLA TS HSD 2021 30/08/2026 00:57:44
6992180 אינדיאן ארהב" - 2018 30/08/2026 00:57:43
50732804 צ'רי סין TIGGO7 PRO PHEV 2025 30/08/2026 00:57:43
6194616 ב מ וו גרמניה 530I 2009 30/08/2026 00:57:43
7336161 יונדאי קוריאה הדרומית GETZ 2007 30/08/2026 00:57:39
84415501 יונדאי טורקיה I20 2020 30/08/2026 00:57:38
84741703 קיה קוריאה הדרומית STONIC 2024 30/08/2026 00:57:36
5201726 טויוטה טורקיה COROLLA HSD SDN 2022 30/08/2026 00:57:34
55357004 מ.ג סין EHS 2026 30/08/2026 00:57:33
96506 פרגוסון - 1960 30/08/2026 00:57:29
343195 פולקסווגן גרמנ - 1973 30/08/2026 00:57:25
5990789 סאן יאנג טיואן - 2017 30/08/2026 00:57:24
93136201 מרצדס גרמניה B200 D 2021 30/08/2026 00:57:19
6305833 קיה סלובקיה SPORTAGE 2015 30/08/2026 00:57:15
4647465 סיטרואן ספרד C4 PICASSO 2008 30/08/2026 00:57:14
68711702 וולבו בלגיה XC40 T2 2022 30/08/2026 00:57:11
6251313 סיטרואן צרפת C3 2012 30/08/2026 00:57:09
44542501 טויוטה בריטניה AURIS HYBRID 2018 30/08/2026 00:57:09
1091130 דייהטסו יפן אפלאוזILG-אוטו' 1997 30/08/2026 00:57:08
78867103 ימהה אינדונזיה - 2024 30/08/2026 00:57:07
3314565 מיצובישי יפן LANCER 2008 30/08/2026 00:57:04
20763902 ימהה יפן - 2020 30/08/2026 00:57:03
92103801 רנו טורקיה GRAND COUPE 2017 30/08/2026 00:57:01
4969368 הונדה יפן - 2009 30/08/2026 00:57:01
27720403 מרצדס בנץ גרמנ - 2024 30/08/2026 00:56:59
8540500 איסוזו יפן - 1996 30/08/2026 00:56:57
52464 פרגוסון - 1965 30/08/2026 00:56:54
1740561 מזדה יפן MAZDA 6 2007 30/08/2026 00:56:50
61340301 מזדה יפן CX-5 2020 30/08/2026 00:56:49
7030367 סובארו יפן B4 2008 30/08/2026 00:56:44
42499604 איויאיסי סין LIMO 2025 30/08/2026 00:56:39
30263201 מזדה יפן MAZDA 3 2018 30/08/2026 00:56:39
8670752 מזארטי איטליה GRAN TURISMO 2014 30/08/2026 00:56:36
55357004 מ.ג סין EHS 2026 30/08/2026 00:56:34
1248637 טויוטה טורקיה COROLLA 2016 30/08/2026 00:56:34
2694638 סיאט ספרד LEON 2016 30/08/2026 00:56:32
68711702 וולבו בלגיה XC40 T2 2022 30/08/2026 00:56:31
1090671 פולקסווגן גרמניה GOLF 2010 30/08/2026 00:56:31
7770569 מ א ן גרמניה - 2017 30/08/2026 00:56:29
3042176 פיאט איטליה PUNTO 1.4 2011 30/08/2026 00:56:26
3754178 הונדה תאילנד - 2012 30/08/2026 00:56:24
1434930 סובארו יפן IMPREZA 2015 30/08/2026 00:56:23
9065081 טויוטה בריטניה AVENSIS 2017 30/08/2026 00:56:21
8760473 יונדאי צ'כיה I30 2010 30/08/2026 00:56:18
58190403 צ'רי סין TIGGO 8 PRO 2023 30/08/2026 00:56:17
58685702 אאודי גרמניה A3 SPORTBACK 2021 30/08/2026 00:56:16
5579384 ניסאן הודו MICRA 2017 30/08/2026 00:56:15
59211203 ניסאן בריטניה JUKE HYBRID 2024 30/08/2026 00:56:14
1067187 הונדה מקסיקו HR-V 2017 30/08/2026 00:56:13
38310104 צ'רי סין TIGGO7 PRO PHEV 2025 30/08/2026 00:56:11
46553903 סיאט ספרד CUPRA 2023 30/08/2026 00:56:09
7132571 פורד בלגיה GALAXY 2011 30/08/2026 00:56:07
52731904 קיי גי מוביליט TIVOLI 2026 30/08/2026 00:56:03
68711702 וולבו בלגיה XC40 T2 2022 30/08/2026 00:56:03
65876002 טויוטה בריטניה COROLLA TS HSD 2021 30/08/2026 00:56:02
55357004 מ.ג סין EHS 2026 30/08/2026 00:56:01
15122501 יונדאי קוריאה הדרומית IONIQ HYBRID 2017 30/08/2026 00:55:59
6463773 סקודה צ'כיה YETI 2011 30/08/2026 00:55:59
2626239 אוובוס ספרד - 2016 30/08/2026 00:55:51
10931304 סקודה צ'כיה KAMIQ FL 2025 30/08/2026 00:55:48
9043871 פולקסווגן מכסי - 2010 30/08/2026 00:55:47
3781434 יונדאי קוריאה הדרומית I25 2015 30/08/2026 00:55:46
2407661 טויוטה יפן LAND CRUISER 2007 30/08/2026 00:55:45
9868554 מזדה יפן MAZDA 3 2016 30/08/2026 00:55:45
92610701 פולקסווגן גרמניה PASSAT 2018 30/08/2026 00:55:44
2829132 שברולט קוריאה הדרומית CRUZE 2014 30/08/2026 00:55:42
7926329 מזדה יפן MPV 2000 30/08/2026 00:55:41
91710701 דודג' קנדה - 2019 30/08/2026 00:55:41
1206637 טויוטה ארהב" CAMRY HYBRID 2016 30/08/2026 00:55:40
7849066 טויוטה יפן RAV 4 2008 30/08/2026 00:55:40
9189232 איסוזו תאילנד PICK - UP 2015 30/08/2026 00:55:38
55033401 מרצדס גרמניה E350E 2018 30/08/2026 00:55:37
2058732 מרצדס גרמניה C180 2015 30/08/2026 00:55:36
77226502 סאן יאנג טיואן - 2022 30/08/2026 00:55:35
70152002 גולדן דרגון סי - 2021 30/08/2026 00:55:33
9776337 סוזוקי הונגריה SX4 CROSSOVER 2016 30/08/2026 00:55:33
54616202 יונדאי טורקיה I10 2021 30/08/2026 00:55:32
55357004 מ.ג סין EHS 2026 30/08/2026 00:55:30
6691579 טויוטה טורקיה VERSO 2012 30/08/2026 00:55:29
33333333 ב מ וו גרמניה M4 COMPETITION 2026 30/08/2026 00:55:29
47722304 סקודה צ'כיה KAROQ FL 2026 30/08/2026 00:55:28
50380001 יונדאי קוריאה הדרומית SONATA HYBRID 2018 30/08/2026 00:55:28
8822887 די אס צרפת DS3 2017 30/08/2026 00:55:27
54421502 יונדאי טורקיה I20 2021 30/08/2026 00:55:26
3042176 פיאט איטליה PUNTO 1.4 2011 30/08/2026 00:55:25
8704984 ימהה יפן - 2017 30/08/2026 00:55:23
44901302 מרכבי נוע בעמ - 2020 30/08/2026 00:55:22
33967301 ב מ וו גרמניה 118I 2018 30/08/2026 00:55:21
3959537 מיצובישי יפן LANCER SPORTBAC 2016 30/08/2026 00:55:19
4862811 יונדאי צ'כיה I30 2013 30/08/2026 00:55:19
וואטסאפ